User: anonymous   Login
Location: Unspecified
(0.0000°N, 0.0000°E)
Time: 20:40:31
(UTC+00:00)
Language:

GONETS M 11 (M21) - Orbit

View from above orbital plane
View from above orbital plane
View from above satellite
View from above satellite

Ground track
Ground track

The orbit data is extracted from the following two-line orbital elements,

1 40552U 15020A   17172.16269442 +.00000010 +00000-0 +00000-0 0  9997
2 40552 082.4872 276.5040 0014993 325.1432 034.8659 12.42866493100932
Epoch (UTC): 21 June 2017 03:54:16
Eccentricity: 0.0014993
inclination: 82.4872°
perigee height: 1482 km
apogee height: 1506 km
right ascension of ascending node: 276.5040°
argument of perigee: 325.1432°
revolutions per day: 12.42866493
mean anomaly at epoch: 34.8659°
orbit number at epoch: 10093

The dashed part of the orbit path shows where the satellite is in the earth's shadow,  

DLR